#timestamp,LO_Frequency,Hit,StdDev 
1514959215.5,286046988.5,N
1514959235.3,286046991.3,N
1514959255.2,286046992.9,N
1514959275.9,286046985.7,Y
1514959295.7,286046991.1,P
1514959315.6,286046987.5,P
1514959335.4,286046985.3,P
1514959355.2,286046986.0,Y
1514959375.1,286046995.3,P
1514959376.0,286046995.3,N
1514959395.8,286046997.0,N
1514959415.6,286046997.3,N
1514959435.4,286046997.3,N
1514959455.3,286046997.7,N
1514959475.1,286046997.9,N
1514959495.8,286046995.0,N
1514959515.7,286046998.5,N
1514959535.5,286047000.9,N
1514959555.3,286047005.0,N
1514959575.2,286047008.3,N
1514959595.9,286047007.7,N
1514959615.7,286047008.8,N
1514959635.6,286047009.0,N
1514959655.4,286047006.7,N
1514959675.2,286047004.7,N
1514959695.0,286047006.2,N
1514959696.0,286047006.2,N
1514959715.8,286047007.3,N
1514959735.6,286047006.6,N
1514959755.4,286047007.7,N
1514959775.3,286047008.9,N
1514959795.1,286047008.2,N
1514959815.8,286047008.6,N
1514959835.7,286047009.6,N
1514959855.5,286047013.7,N
1514959875.3,286047015.6,N
1514959895.2,286047009.4,N
1514959915.9,286047012.0,N
1514959935.7,286047013.4,N
1514959955.6,286047017.0,N
1514959975.4,286047019.9,Y
1514959995.2,286047009.4,P
1514960015.1,286047011.1,P
1514960016.0,286047011.1,P
1514960035.8,286047011.6,Y
1514960055.6,286047000.5,P
1514960075.5,286047003.8,N
1514960095.3,286047008.0,N
1514960115.1,286047009.4,N
1514960135.9,286047008.2,N
1514960155.7,286047006.8,N
1514960175.5,286047010.5,Y
1514960195.4,286047001.3,P
1514960215.2,286047005.8,N
1514960235.0,286047003.4,N
1514960235.9,286047003.4,N
1514960255.8,286047006.2,Y
1514960275.6,286047005.0,P
1514960295.4,286047006.9,P
1514960315.3,286047012.4,P
1514960335.1,286047014.8,Y
1514960336.0,286047014.8,P
1514960355.8,286047008.0,N
1514960375.7,286047014.0,P
1514960395.5,286047018.3,Y
1514960415.3,286047007.2,P
1514960435.2,286047006.5,P
1514960455.9,286047005.1,N
1514960475.7,286047007.4,Y
1514960495.6,286046995.1,P
1514960515.4,286046994.1,N
1514960535.2,286046994.4,N
1514960555.1,286046992.5,N
1514960556.0,286046992.5,N
1514960575.8,286046994.5,N
1514960595.6,286046991.1,N
1514960615.4,286046992.7,N
1514960635.3,286046991.5,N
1514960655.1,286046990.2,N
1514960675.8,286046990.6,N
1514960695.7,286046991.0,N
1514960715.5,286046985.9,Y
1514960735.3,286046991.4,P
1514960755.2,286046988.9,P
1514960775.9,286046987.0,P
1514960795.7,286046987.8,Y
1514960815.6,286046997.8,P
1514960835.4,286046996.0,N
1514960855.2,286046991.3,N
1514960875.1,286046989.3,Y
1514960876.0,286046989.3,P
1514960895.8,286046993.4,N
1514960915.6,286046994.7,N
1514960935.5,286046992.9,Y
1514960955.3,286047001.1,P
1514960975.1,286046999.5,N
1514960995.9,286046999.5,N
1514961015.7,286046999.4,N
1514961035.5,286046996.8,N
1514961055.4,286046996.8,N
1514961075.2,286046998.3,N
1514961095.0,286047002.0,N
1514961095.9,286047002.0,N
1514961115.8,286047002.2,N
1514961135.6,286047000.5,N
1514961155.4,286046998.4,N
1514961175.3,286047001.0,N
1514961195.1,286046999.3,N
1514961196.0,286046999.3,N
1514961215.8,286046996.6,N
1514961235.6,286046999.4,N
1514961255.5,286046994.9,N
1514961275.3,286046995.9,N
1514961295.1,286046993.8,N
1514961315.9,286046995.4,N
1514961335.7,286046997.4,N
1514961355.5,286046996.8,N
1514961375.4,286046997.1,N
1514961395.2,286046997.7,N
1514961415.0,286046993.5,N
1514961415.9,286046993.5,N
1514961435.8,286046994.1,N
1514961455.6,286046993.1,N
1514961475.4,286046991.7,N
1514961495.2,286046996.3,N
1514961515.1,286046991.7,N
1514961516.0,286046991.7,N
1514961535.8,286046991.5,N
1514961555.7,286046988.7,Y
1514961575.5,286046993.7,P
1514961595.3,286046993.6,P
1514961615.1,286046993.8,P
1514961635.9,286046996.4,N
1514961655.7,286046993.3,Y
1514961675.6,286046996.9,P
1514961695.4,286046999.5,N
1514961715.2,286047000.9,N
1514961735.0,286047001.7,N
1514961735.9,286047001.7,N
1514961755.8,286047004.4,N
1514961775.6,286047004.9,N
1514961795.4,286047007.3,N
1514961815.3,286047006.4,N
1514961835.1,286047005.3,N
1514961855.8,286047004.7,N
1514961875.7,286047005.4,N
1514961895.5,286047005.6,N
1514961915.3,286047005.1,N
1514961935.2,286047007.0,N
1514961955.9,286047006.4,N
1514961975.7,286047003.1,N
1514961995.6,286047004.2,N
1514962015.4,286047005.4,N
1514962035.2,286047004.4,N
1514962055.0,286047003.7,N
1514962055.9,286047003.7,N
1514962075.8,286047001.5,N
1514962095.6,286047001.5,N
1514962115.4,286047002.3,N
1514962135.3,286046999.7,N
1514962155.1,286047002.3,N
1514962156.0,286047002.3,N
1514962175.8,286047002.7,N
1514962195.7,286047001.7,N
1514962215.5,286047004.0,N
1514962235.3,286047006.6,Y
1514962255.2,286047006.0,P
1514962275.9,286047003.0,N
1514962295.7,286047007.5,P
1514962315.6,286047006.8,Y
1514962335.4,286047001.9,P
1514962355.2,286047003.7,N
1514962375.1,286047004.2,P
1514962376.0,286047004.2,Y
1514962395.8,286046999.1,P
1514962415.6,286046999.6,N
1514962435.5,286046997.0,N
1514962455.3,286047000.9,N
1514962475.1,286047000.8,N
1514962495.9,286047000.8,N
1514962515.7,286046999.5,N
1514962535.5,286046999.0,N
1514962555.4,286046999.0,N
1514962575.2,286046999.1,N
1514962595.0,286046997.5,N
1514962595.9,286046997.5,N
1514962615.8,286046999.5,N
1514962635.6,286046997.6,N
1514962655.4,286046993.5,Y
1514962675.3,286046996.1,P
1514962695.1,286046993.4,P
1514962696.0,286046993.4,N
1514962715.8,286046994.9,N
1514962735.6,286046995.0,N
1514962755.5,286046997.1,N
1514962775.3,286046996.2,N
1514962795.1,286046995.9,N
